Flag for China Weather past 2 weeks in Guilin, Guangxi, China

Now
77 °F

Clear.


Feels Like: 78 °F
Forecast: 74 / 92 °F
Wind: No wind

Location: Guilin Airport

Current Time: Sep 3, 2014 at 1:26:01 AM

Latest Report: Sep 3, 2014 at 1:00 AM


Visibility: 10 mi

Pressure: 29.86 "Hg

Humidity: 94%

Dew point: 75 °F

Location of GuilinLocation

Historic Weather in Guilin — Graph

°F

Guilin temperature yesterday

Maximum temperature yesterday: 93 °F (at 3:00 PM)
Minimum temperature yesterday: 73 °F (at 3:00 AM)
Average temperature yesterday: 82 °F

Past Weeks' High & Low Weather Summary

 TemperatureHumidityPressure
High95 °F (Aug 27, 4:00 PM)100% (Aug 19, 12:00 AM)29.98 "Hg (Aug 19, 12:00 AM)
Low72 °F (Aug 19, 7:00 AM)41% (Aug 27, 5:00 PM)29.71 "Hg (Aug 23, 5:00 PM)
Average81 °F79%29.84 "Hg
* Reported Midnight between Aug 18 and Aug 19 — Midnight between Sep 2 and Sep 3, Guilin, Weather by CustomWeather, © 2014

Note: Actual official high and low records may vary slightly from our data, if they occured in-between our weather recording intervals... More about our weather records

Advertising

Guilin weather history for previous 24 hours

 ConditionsComfort  
Time TempWeatherWind HumidityBarometerVisibility
12:00 AM
Sep 3
77 °FPassing clouds.1 mph89%29.86 "HgN/A
11:00 PM
Sep 2
79 °FClear.1 mph84%29.86 "Hg10 mi
10:00 PM79 °FPassing clouds.3 mph84%29.86 "HgN/A
9:00 PM81 °FClear.3 mph79%29.83 "Hg10 mi
8:00 PM82 °FClear.3 mph74%29.83 "Hg10 mi
7:00 PM86 °FPassing clouds.3 mph62%29.80 "HgN/A
6:00 PM90 °FPassing clouds.8 mph55%29.77 "HgN/A
5:00 PM93 °FPassing clouds.6 mph41%29.80 "HgN/A
4:00 PM93 °FPassing clouds.8 mph44%29.80 "HgN/A
3:00 PM93 °FPassing clouds.8 mph47%29.83 "HgN/A
2:00 PM90 °FPassing clouds.13 mph59%29.86 "HgN/A
1:00 PM82 °FSprinkles. Partly sunny.13 mph74%29.89 "HgN/A
12:00 PM90 °FPartly sunny.6 mph55%29.92 "HgN/A
11:00 AM88 °FPassing clouds.6 mph59%29.92 "HgN/A
10:00 AM86 °FPassing clouds.3 mph62%29.92 "HgN/A
9:00 AM82 °FPassing clouds.3 mph70%29.92 "HgN/A
8:00 AM77 °FScattered clouds.1 mph89%29.92 "HgN/A
7:00 AM75 °FScattered clouds.1 mph94%29.89 "HgN/A
6:00 AM73 °FPassing clouds.No wind94%29.89 "HgN/A
5:00 AM73 °FClear.1 mph94%29.89 "Hg10 mi
4:00 AM73 °FClear.No wind94%29.86 "Hg10 mi
3:00 AM73 °FClear.No wind94%29.86 "Hg10 mi
2:00 AM75 °FClear.No wind89%29.86 "Hg10 mi
1:00 AM75 °FClear.1 mph89%29.89 "Hg10 mi
Weather by CustomWeather, © 2014

See weather overviewHow to use our weather pages